[[{"header":{"parameterUnit":"m.s-1","parameterCategory":1,"la1":30.2992,"la2":30.254,"lo1":-89.0895,"lo2":-89.0443,"dy":0.0025,"dx":0.0025,"nx":19,"ny":19,"refTime":"2026-05-03T21:00:00:Z","depth":0,"parameterNumber":2,"parameterNumberName":"U-component_of_WINDS"},"data":[0,0,0,0.3714,0.3715,0.3756,0.3756,0.3812,0.3813,0,0,0,0,0,0,0,0,0,0,0,0.3704,0.3704,0.3714,0.3715,0.3756,0.3756,0.3812,0.3813,0,0,0,0,0,0,0,0,0,0,0,0.3704,0.3704,0.3705,0.3715,0.3756,0.3757,0.3812,0.378,0,0,0,0,0,0,0,0,0,0,0.374,0.3732,0.3704,0.3705,0.3716,0.3756,0.3757,0.3779,0.3782,0.3795,0,0.3807,0,0.3811,0.3817,0.3817,0,0,0,0.3714,0.3729,0.3738,0.3705,0.3716,0.3756,0.3738,0.3781,0.3785,0.38,0.3808,0.381,0.3812,0.3817,0.3818,0.3894,0.3894,0,0,0.3712,0.3713,0.3735,0.3741,0.3734,0.3736,0.3739,0.3783,0.3792,0.3808,0.3811,0.3813,0.3818,0.3818,0.3893,0.3894,0,0,0,0.3706,0.3711,0.3719,0.3739,0.3746,0.3737,0.374,0.379,0.3792,0.3812,0.3813,0.3818,0.3819,0.3893,0.3894,0.3913,0,0,0,0.3705,0.3708,0.3718,0.3719,0.3745,0.3768,0.3746,0.3789,0.3794,0.3813,0.3818,0.3819,0.3892,0.3893,0.3912,0.3923,0,0,0,0.3701,0.3707,0.3714,0.3719,0.3737,0.3768,0.3773,0.379,0.3795,0.3817,0.3819,0.3892,0.3893,0.3911,0.3921,0.3943,0,0,0,0.3697,0.3733,0.3714,0.3754,0.3736,0.3779,0.3772,0.3805,0.3826,0.3818,0.3893,0.3893,0.391,0.392,0.3941,0.3961,0.3969,0,0,0.3742,0.3738,0.3762,0.3746,0.3792,0.3773,0.3822,0.3842,0.3844,0.3877,0.3879,0.3912,0.3921,0.3942,0.4015,0.4022,0,0,0,0.3776,0.3793,0.3805,0.3824,0.3839,0.3852,0.3863,0.387,0.3897,0.3861,0.3926,0.3931,0.3944,0.3953,0.3959,0.3969,0.3898,0.3898,0.3898,0.3843,0.3841,0.3879,0.3882,0.3901,0.3911,0.3926,0.3937,0.3932,0.3947,0.3957,0.4001,0.4013,0.4017,0.4028,0.3967,0.3968,0.3968,0.3968,0.3909,0.3932,0.3921,0.3955,0.3953,0.3981,0.3991,0.3986,0.4012,0.3994,0.4005,0.3986,0.4024,0.4033,0.3969,0.3969,0.3969,0.3969,0.3968,0.3952,0.3963,0.3969,0.3995,0.4015,0.4017,0.4041,0.4039,0.4038,0.4048,0.4058,0.4058,0.4057,0.4053,0.4053,0.4053,0.4053,0.4054,0.4054,0.3995,0.4001,0.4021,0.4037,0.4048,0.4062,0.4071,0.4081,0.4093,0.4089,0.409,0.4082,0.4028,0.4014,0.4056,0.4056,0.4055,0.4055,0.4055,0.4062,0.4046,0.4078,0.4088,0.4106,0.4125,0.4121,0.4143,0.4151,0.4163,0.4153,0.4112,0.4109,0.4104,0.4093,0.4153,0.4153,0.4153,0.4153,0.4099,0.4096,0.4126,0.4143,0.4159,0.4158,0.4193,0.4199,0.4203,0.4208,0.4199,0.4184,0.4179,0.4178,0.4172,0.4161,0.4237,0.4238,0.4238,0.414,0.4138,0.4169,0.4171,0.4184,0.4195,0.4227,0.4247,0.4248,0.4241,0.4212,0.4208,0.4183,0.4175,0.4169,0.416,0.414,0,0]},{"header":{"parameterUnit":"m.s-1","parameterCategory":1,"la1":30.2992,"la2":30.254,"lo1":-89.0895,"lo2":-89.0443,"dy":0.0025,"dx":0.0025,"nx":19,"ny":19,"refTime":"2026-05-03T21:00:00:Z","depth":0,"parameterNumber":3,"parameterNumberName":"V-component_of_WINDS"},"data":[0,0,0,7.419,7.4191,7.4228,7.4228,7.4284,7.4284,0,0,0,0,0,0,0,0,0,0,0,7.4185,7.4186,7.419,7.4191,7.4228,7.4228,7.4283,7.4284,0,0,0,0,0,0,0,0,0,0,0,7.4185,7.4185,7.4186,7.4191,7.4228,7.4228,7.4283,7.4252,0,0,0,0,0,0,0,0,0,0,7.4215,7.4216,7.4185,7.4186,7.4191,7.4228,7.4228,7.425,7.4254,7.4271,0,7.4288,0,7.4287,7.4289,7.4289,0,0,0,7.4186,7.4213,7.4218,7.4186,7.4192,7.4228,7.421,7.4252,7.4256,7.4275,7.4289,7.4291,7.4288,7.4289,7.4289,7.4405,7.4405,0,0,7.4184,7.4195,7.4215,7.4221,7.4217,7.4209,7.4211,7.4255,7.4269,7.4289,7.4292,7.4289,7.4289,7.429,7.4404,7.4405,0,0,0,7.4181,7.4193,7.4197,7.4219,7.4225,7.421,7.4213,7.4267,7.4268,7.4292,7.429,7.429,7.4291,7.4403,7.4404,7.4453,0,0,0,7.418,7.4192,7.4196,7.4203,7.4225,7.4247,7.4225,7.4265,7.4269,7.4289,7.429,7.4291,7.4402,7.4404,7.445,7.4474,0,0,0,7.418,7.4192,7.42,7.4203,7.422,7.4246,7.4249,7.4265,7.4268,7.4289,7.4291,7.4402,7.4403,7.4447,7.4469,7.4508,0,0,0,7.4184,7.4241,7.42,7.4264,7.422,7.4277,7.4248,7.429,7.4314,7.429,7.4402,7.4404,7.4446,7.4466,7.4505,7.4541,7.4558,0,0,7.4262,7.4251,7.4288,7.4252,7.432,7.427,7.4344,7.4355,7.4346,7.4385,7.4388,7.4451,7.4469,7.4507,7.4648,7.4661,0,0,0,7.4317,7.4343,7.4358,7.4382,7.4393,7.4404,7.4403,7.4407,7.444,7.4369,7.4475,7.4485,7.4507,7.4524,7.4535,7.4553,7.4413,7.4412,7.4412,7.4442,7.443,7.449,7.4482,7.4506,7.4505,7.4522,7.4527,7.4506,7.4532,7.4543,7.463,7.4651,7.4659,7.4678,7.4562,7.4562,7.4562,7.4562,7.4556,7.4591,7.4565,7.4613,7.4599,7.4639,7.464,7.4625,7.4659,7.4621,7.4639,7.4597,7.4674,7.469,7.4566,7.4565,7.4565,7.4565,7.4564,7.4636,7.4651,7.4656,7.4691,7.4718,7.4708,7.4743,7.4729,7.4716,7.4734,7.4744,7.4743,7.474,7.474,7.474,7.4741,7.4741,7.4741,7.4741,7.4717,7.4722,7.4753,7.4771,7.4785,7.4802,7.4802,7.4815,7.4826,7.4812,7.4812,7.4789,7.4684,7.4658,7.4746,7.4745,7.4745,7.4744,7.4744,7.4835,7.4807,7.4856,7.4871,7.489,7.4919,7.4901,7.4929,7.4937,7.4955,7.4929,7.4854,7.4841,7.4832,7.4809,7.4931,7.4931,7.4931,7.4931,7.4902,7.4895,7.4943,7.4967,7.4989,7.4979,7.5034,7.5035,7.5031,7.5036,7.5016,7.4986,7.4978,7.497,7.4958,7.4937,7.5088,7.5088,7.5089,7.4974,7.4969,7.5019,7.5017,7.5032,7.5045,7.5097,7.5124,7.5114,7.5095,7.5039,7.5032,7.4984,7.4968,7.4947,7.4928,7.489,0,0]}]]